ERS 2 DEB, 35392

Orbit data source: Space-Track

ERS 2 DEB, 35392 is space debris in SSO originally from a launch on Fri, 21 Apr 1995 UTC launched from the French Guiana (FRGUI). Debris objects in space refer to the collection of defunct objects orbiting the Earth. Examples of debris include non-operational satellites, rocket bodies, and fragments generated from explosions, collisions, or faulty payload assembly.

Loading next visibility...
Identifier
35392, 1995-021F
Orbit
SSO
Country
Flag of ESAESA
Related business
Manufacturer
Unknown
Mission
Spacecraft
Bus & Motor
Unknown
Mass
Unknown
Launch date (UTC)
1995-04-21 (31 years ago)
Launch vehicle
Unknown
Launch site
French Guiana (FRGUI)
Object type
Payload
Rocket body
Debris
Shape & HBR
Unknown shape, 0.1 m
Radar Cross Section
Medium (>0.1 m² and <1 m²)

Expand to show TLE details & history
Last TLE update: 2 days ago

TLE from 2 days ago
0 ERS 2 DEB
1 35392U 95021F   26171.37210480  .00002038  00000-0  48811-3 0  9999
2 35392  98.3121 142.8689 0004515  90.8766 269.2948 14.54577145969688
Epoch: 2026-06-20T08:55Z
TLE epoch observation values (Epoch: 2026-06-20T08:55:49.854Z)
Latitude
-0.00005°
Longitude
100.32351°
Altitude
713.753 km
Speed
7.499 km/s
True Right ascension
09h 31m 28s
True Declination
0° 00' 00"
Sunlit
Object was in daylight at epoch
Visualization orbit readout
Latitude
Unknown
Longitude
Unknown
Altitude
Unknown
Speed
Unknown
Apparent Right ascension
Unknown
Apparent Declination
Unknown
Sunlit
N/A
Visualization observer readout
Local Sidereal Time
23:08:33
Azimuth
Unknown
Elevation
Unknown
Doppler factor
Unknown
Orbital elements
Apogee altitude
711.031 km
Perigee altitude
704.633 km
Semi-major axis
7,085.969 km
Eccentricity
0.00045
Inclination
98.3121°
RAAN
142.8689°
Arg. of periapsis
90.8766°
True anomaly
269.24307°
Mean anomaly
269.2948°
Eccentric anomaly
269.26893°
Mean motion
3.63868 °/min
Orbital period
98.94 mins
BSTAR
0.00048811
Loading maneuver chart data...
Computing Atmospheric mass density...
Loading historical data...
Loading historical data...
Loading historical data...
Loading historical data...
Loading historical data...
Loading historical data...
Loading historical data...

Documentation

Showing up to 5 results
|